SCP
0 0 0 1 1 1 1 2 6 4 2 3 3 5 4 2 2 3 3 4 2 2
0 0 1 2 3 2 4 3 5 3 3 4 5 5 4 2 2 3 3 3 2 2
0 0 0 2 4 5 6 5 3 4 3 4 4 3 2 3 3 3 4 3 2 2
0 0 0 1 1 2 3 3 2 3 3 4 2 2 2 3 3 3 4 2 2 1
0 0 0 0 0 0 1 1 2 2 2 1 1 2 3 3 3 3 3 2 1 1
0 0 0 1 1 0 0 1 1 1 1 1 2 2 3 3 2 3 2 1 1 1
0 0 0 1 1 1 1 1 1 1 1 1 2 2 3 3 3 2 1 1 1 1
0 0 1 1 1 1 1 1 1 1 1 2 2 3 3 3 2 2 1 1 1 1
0 0 1 1 0 0 1 1 1 1 2 2 2 2 2 2 1 1 1 1 1 1
0 0 1 0 0 0 1 2 2 2 2 3 3 1 1 1 1 1 1 1 1 0
-0 0 1 0 1 2 3 3 3 3 3 3 1 0 0 1 1 1 0 0 0 0
-0 1 0 0 1 4 4 4 3 3 2 2 0 0 0 0 0 0 0 0 0 0
1 1 1 2 2 4 5 4 3 2 2 1 0 0 0 0 0 0 0 0 0 0
1 1 2 3 4 5 4 3 2 1 1 1 0 0 0 0 0 0 0 0 0 0
Wind_Speed_500mb
51 51 51 61 68 69 64 53 58 62 55 56 56 56 50 45 43 46 48 47 41 34
55 57 53 53 65 78 85 81 74 69 65 58 54 53 46 40 47 45 43 39 40 36
57 56 59 55 59 67 72 77 65 66 63 56 52 48 45 47 46 43 37 33 37 36
60 56 58 60 57 63 70 71 70 60 56 55 55 49 50 48 38 41 37 33 35 36
53 56 56 61 60 60 62 57 59 53 54 54 49 48 55 49 36 39 37 34 33 34
54 58 59 65 61 59 59 55 53 51 52 50 46 47 44 39 39 36 35 33 36 35
55 54 58 66 65 62 63 56 56 54 50 46 44 42 41 43 41 37 36 39 40 36
56 54 55 57 64 62 62 56 52 50 47 46 45 45 45 44 41 41 42 45 43 33
54 55 57 58 58 57 51 51 51 50 49 48 43 51 48 42 39 43 39 39 35 29
55 56 59 57 54 55 56 55 52 49 48 48 47 49 46 45 41 35 33 31 31 31
58 55 59 57 58 58 57 57 56 51 51 48 49 48 49 45 31 28 27 29 32 34
54 55 61 61 66 70 65 59 54 52 54 51 54 54 53 44 31 28 29 26 25 28
48 59 67 70 74 70 66 62 59 52 47 56 58 55 48 41 29 28 22 21 25 33
51 66 71 74 82 76 72 62 58 61 60 58 55 50 44 40 28 23 23 21 18 22
Wind_Direction_500mb
263 260 258 249 242 241 242 236 246 259 263 260 249 237 234 236 249 263 267 247 231 230
266 260 255 258 250 246 248 252 255 255 258 251 237 231 230 233 254 262 254 232 231 226
264 262 256 253 252 245 243 246 238 246 252 237 230 230 236 243 251 251 227 214 227 227
263 257 256 252 252 248 241 235 238 239 234 224 226 230 240 238 229 230 210 214 225 227
263 255 252 249 248 248 244 233 234 223 220 215 220 230 236 232 210 202 207 216 215 216
261 255 247 245 246 247 243 231 223 215 210 208 211 220 216 206 202 202 209 208 210 207
259 255 247 242 243 241 236 228 222 213 209 206 202 201 199 198 200 208 203 209 208 210
261 258 248 242 238 235 230 222 214 206 201 197 193 195 193 197 211 210 210 210 208 209
260 256 245 238 230 224 214 203 196 194 191 187 191 199 198 202 198 199 198 196 197 205
258 252 238 230 217 206 196 189 184 181 182 184 188 197 194 196 190 186 185 191 201 202
256 243 228 215 202 188 180 176 174 176 178 173 189 185 182 179 179 183 186 193 199 202
251 221 211 201 187 181 169 172 167 168 176 185 179 175 178 175 178 186 190 198 205 215
234 209 202 188 180 169 170 167 164 166 168 172 171 174 176 170 184 191 189 194 207 207
221 201 185 177 172 171 166 163 154 158 162 168 173 172 180 182 189 191 189 189 187 202
Wind_Speed_850mb
51 51 51 61 68 69 64 53 58 62 55 56 56 56 50 45 43 46 48 47 41 34
55 57 53 53 65 78 85 81 74 69 65 58 54 53 46 40 47 45 43 39 40 36
57 56 59 55 59 67 72 77 65 66 63 56 52 48 45 47 46 43 37 33 37 36
60 56 58 60 57 63 70 71 70 60 56 55 55 49 50 48 38 41 37 33 35 36
53 56 56 61 60 60 62 57 59 53 54 54 49 48 55 49 36 39 37 34 33 34
54 58 59 65 61 59 59 55 53 51 52 50 46 47 44 39 39 36 35 33 36 35
55 54 58 66 65 62 63 56 56 54 50 46 44 42 41 43 41 37 36 39 40 36
56 54 55 57 64 62 62 56 52 50 47 46 45 45 45 44 41 41 42 45 43 33
54 55 57 58 58 57 51 51 51 50 49 48 43 51 48 42 39 43 39 39 35 29
55 56 59 57 54 55 56 55 52 49 48 48 47 49 46 45 41 35 33 31 31 31
58 55 59 57 58 58 57 57 56 51 51 48 49 48 49 45 31 28 27 29 32 34
54 55 61 61 66 70 65 59 54 52 54 51 54 54 53 44 31 28 29 26 25 28
48 59 67 70 74 70 66 62 59 52 47 56 58 55 48 41 29 28 22 21 25 33
51 66 71 74 82 76 72 62 58 61 60 58 55 50 44 40 28 23 23 21 18 22
Wind_Direction_850mb
263 260 258 249 242 241 242 236 246 259 263 260 249 237 234 236 249 263 267 247 231 230
266 260 255 258 250 246 248 252 255 255 258 251 237 231 230 233 254 262 254 232 231 226
264 262 256 253 252 245 243 246 238 246 252 237 230 230 236 243 251 251 227 214 227 227
263 257 256 252 252 248 241 235 238 239 234 224 226 230 240 238 229 230 210 214 225 227
263 255 252 249 248 248 244 233 234 223 220 215 220 230 236 232 210 202 207 216 215 216
261 255 247 245 246 247 243 231 223 215 210 208 211 220 216 206 202 202 209 208 210 207
259 255 247 242 243 241 236 228 222 213 209 206 202 201 199 198 200 208 203 209 208 210
261 258 248 242 238 235 230 222 214 206 201 197 193 195 193 197 211 210 210 210 208 209
260 256 245 238 230 224 214 203 196 194 191 187 191 199 198 202 198 199 198 196 197 205
258 252 238 230 217 206 196 189 184 181 182 184 188 197 194 196 190 186 185 191 201 202
256 243 228 215 202 188 180 176 174 176 178 173 189 185 182 179 179 183 186 193 199 202
251 221 211 201 187 181 169 172 167 168 176 185 179 175 178 175 178 186 190 198 205 215
234 209 202 188 180 169 170 167 164 166 168 172 171 174 176 170 184 191 189 194 207 207
221 201 185 177 172 171 166 163 154 158 162 168 173 172 180 182 189 191 189 189 187 202